Zurück zum Katalog

STARLINK-4764

AktivKommunikationVLEO
NORAD 53827·PAYLOAD·🇺🇸 United States

Gestartet Sep 19, 2022 von Cape Canaveral Space Force Station

Loading…

Nächste Überflüge (nächste 24 Stunden)

TLE

AktuellSource: CelesTrak SupGP

Epoche: Sep 15, 2026, 01:53 UTC

1 53827C 22114K   26258.07895833  .00009844  00000+0  28171-3 0  2585
2 53827  53.1597 165.5954 0001269  83.3924 237.1705 15.35388266    12

Verfolge STARLINK-4764 in Echtzeit mit AllMySat

Download on the App Store